Theta_e
312 312 311 311 311 307 305 306 310 312 311 312 310 307 307 306 305 304 301 300 299 298 296 297 298 299 300 300 299 299 299 299 298 298 297 297 297 297 296 296 295 294 293 293
313 313 312 312 310 309 307 307 305 306 307 308 308 306 307 305 305 305 302 301 300 299 297 296 298 298 299 300 299 299 299 298 298 298 297 297 297 297 296 295 295 294 293 293
313 312 312 312 309 309 309 307 308 309 310 308 308 308 307 304 303 304 304 300 298 298 298 298 298 299 299 300 300 299 298 298 298 298 297 297 297 297 296 296 295 293 293 293
312 314 317 313 311 310 310 310 307 308 307 308 308 308 304 302 301 302 302 303 299 299 299 299 299 299 299 300 300 299 298 298 298 298 297 297 297 296 296 296 295 293 293 293
312 312 313 314 313 309 310 312 309 309 309 310 307 305 306 304 302 301 300 299 302 303 301 300 300 300 299 299 299 299 298 298 298 298 297 297 297 296 296 296 295 294 293 293
308 313 317 314 309 308 308 309 309 308 308 308 306 307 306 305 303 302 301 301 301 303 302 301 300 300 299 299 299 298 298 298 298 298 298 297 297 296 296 296 296 295 294 294
310 312 313 313 308 307 312 313 307 306 306 306 306 305 304 304 303 304 303 302 302 302 301 302 301 300 299 298 298 299 298 298 298 298 298 297 297 296 296 296 296 296 295 295
306 310 316 309 305 309 309 308 307 307 307 306 305 305 305 304 304 303 302 302 302 301 301 301 300 299 299 298 299 299 299 298 298 298 298 297 297 297 296 296 296 296 295 295
311 312 310 304 308 305 305 306 308 307 308 308 307 306 305 304 304 303 304 303 302 300 300 300 300 299 299 299 299 299 298 298 298 298 298 298 297 297 296 296 296 296 295 295
312 313 312 309 306 306 304 304 305 307 307 307 306 305 304 302 302 303 305 305 305 300 299 299 300 300 300 299 299 298 298 298 298 297 298 298 297 297 296 296 296 296 295 295
310 311 312 311 309 309 307 304 306 306 306 306 306 305 303 303 303 304 306 307 306 302 300 300 300 299 299 299 299 298 298 298 297 297 297 297 297 297 296 296 296 295 296 296
314 310 312 310 307 306 306 307 307 307 307 306 305 305 304 303 306 307 307 308 306 305 303 302 301 300 299 299 299 298 298 297 296 296 297 297 297 296 296 296 296 296 295 296
313 311 308 308 307 306 307 307 307 310 308 309 308 307 308 307 309 309 308 307 306 307 307 305 302 300 300 299 299 298 298 297 296 296 296 296 296 296 295 296 296 296 296 296
311 310 310 309 309 307 308 309 309 309 308 308 307 306 305 304 304 304 304 305 304 305 305 305 303 301 301 299 299 298 298 297 296 296 296 295 295 295 295 295 296 297 296 296
311 310 310 310 310 308 307 306 304 302 301 300 300 299 299 298 298 299 300 300 300 301 302 303 303 303 302 299 298 298 297 297 296 296 296 296 295 295 295 295 295 296 296 295
311 311 310 309 308 306 303 300 300 299 298 298 297 298 298 298 298 298 298 298 298 299 300 301 302 303 302 300 298 298 297 297 296 296 295 295 295 294 294 295 295 295 295 295
310 310 307 305 304 299 300 298 298 298 297 296 297 297 297 296 296 296 296 296 297 297 298 299 300 301 301 300 298 297 297 296 296 295 295 294 294 294 294 294 294 294 295 295
308 307 305 303 299 298 298 298 298 298 297 297 297 297 295 295 294 294 294 294 294 295 296 298 299 301 300 299 298 297 296 296 296 296 294 294 294 294 294 294 294 293 294 294
302 301 299 298 298 298 298 298 299 299 299 299 298 296 296 295 294 294 293 293 293 293 294 296 298 299 299 299 298 297 296 295 295 295 295 294 294 294 293 293 293 293 294 294
300 299 299 300 301 301 301 302 302 302 301 299 299 297 295 294 294 293 292 292 292 293 294 295 296 298 299 299 298 297 296 295 295 295 294 294 294 293 293 293 293 293 293 293
300 300 301 301 302 303 303 302 302 301 301 300 299 297 295 294 293 292 292 291 292 292 293 293 293 293 295 297 297 297 296 295 295 294 294 294 294 293 293 293 293 293 293 292
301 302 302 302 301 301 302 302 302 301 300 299 298 297 296 293 292 292 292 291 292 292 291 291 292 292 293 295 296 296 296 295 295 294 293 294 293 293 293 292 293 293 292 292
302 302 301 301 300 300 301 301 301 301 300 299 297 297 296 295 294 292 291 292 291 291 291 291 291 293 294 295 296 296 296 295 294 294 293 293 293 293 293 292 292 292 292 291
300 300 299 299 298 297 296 298 299 300 300 299 298 297 296 295 295 295 293 292 291 291 291 291 292 293 294 294 295 296 295 295 294 294 293 293 293 293 293 292 292 292 292 291
296 296 295 295 294 294 295 297 299 299 299 299 298 298 296 295 294 294 294 292 291 291 291 291 293 293 293 293 294 295 295 294 294 294 293 293 293 293 292 292 292 291 291 291
294 294 295 295 296 296 297 298 298 298 298 297 297 297 296 295 294 293 293 292 291 290 290 291 291 291 292 293 294 294 294 294 294 294 293 293 293 292 292 292 292 291 291 290
295 296 296 297 298 298 299 299 297 296 297 297 296 296 295 295 293 291 291 291 291 290 290 290 290 290 292 293 294 294 294 294 294 293 293 293 292 292 292 292 291 291 290 290
Wind_Speed
5 6 5 6 6 9 9 8 8 17 8 16 6 8 10 6 7 8 9 10 12 13 15 23 28 32 36 36 35 33 32 31 31 28 24 22 20 19 17 16 15 14 13 12
4 7 8 10 10 10 14 11 9 13 20 19 18 6 6 9 8 10 9 13 13 12 16 22 28 31 35 37 37 35 34 34 31 27 25 24 22 21 18 17 16 15 14 13
5 6 4 11 10 12 9 7 8 8 17 7 7 8 6 8 8 8 7 8 9 13 20 26 30 34 36 39 37 36 37 35 33 30 28 26 24 22 20 19 17 16 15 14
4 2 7 9 4 6 12 12 12 9 9 7 5 3 5 3 5 8 7 6 8 14 20 29 34 36 37 37 37 38 38 37 34 31 29 27 25 25 22 19 19 17 16 15
3 5 8 15 10 7 7 11 8 13 9 2 2 4 3 2 4 4 5 9 13 17 30 32 35 36 36 35 37 38 39 38 36 33 31 29 29 27 23 21 20 19 17 16
3 4 7 6 2 2 3 8 6 7 7 4 3 2 4 5 5 7 9 13 15 13 16 26 31 32 34 35 37 37 37 40 37 34 32 32 31 27 24 23 21 19 19 18
5 5 8 9 4 2 4 6 4 6 5 6 4 5 4 6 7 5 6 10 11 10 11 20 25 29 32 32 36 40 38 37 35 34 33 32 30 27 25 23 21 20 20 18
3 3 11 7 4 8 6 1 3 3 4 5 5 5 5 5 6 7 9 8 7 9 12 13 19 27 30 32 37 35 34 34 33 33 33 32 30 28 25 23 23 22 20 19
10 8 5 8 7 7 5 5 4 4 5 4 4 4 4 4 5 6 10 12 12 12 13 14 18 27 30 36 32 32 31 32 33 32 33 32 31 29 26 25 24 24 22 20
4 6 10 8 6 5 8 8 6 5 5 3 5 5 6 5 6 5 11 14 15 14 16 20 19 25 34 32 30 31 32 33 33 33 33 33 31 31 30 29 27 26 24 22
4 6 5 6 7 7 9 6 5 6 6 7 6 7 7 6 7 10 15 18 18 18 22 26 23 25 29 32 30 31 32 33 34 34 33 34 34 34 32 32 30 28 27 22
7 6 7 4 6 6 7 6 7 6 5 6 6 8 6 7 15 17 18 22 19 21 22 29 28 26 27 29 31 33 31 31 31 31 34 33 32 31 31 31 27 26 23 20
11 5 6 6 8 8 8 9 5 4 4 1 4 6 9 6 14 23 23 22 22 26 29 29 29 29 28 27 32 36 33 28 29 30 32 29 30 28 23 29 27 24 23 22
12 4 9 6 5 5 4 5 5 3 1 2 4 8 9 8 12 16 18 23 27 30 32 29 26 28 27 26 30 36 36 32 32 31 31 30 30 28 27 23 22 26 27 23
8 9 9 5 3 5 5 3 3 3 1 2 3 5 10 9 11 16 25 28 29 28 29 30 28 31 28 27 29 35 34 31 31 32 33 33 31 29 29 27 26 25 25 22
21 18 13 11 8 8 7 6 4 1 1 2 6 10 13 16 19 24 26 27 22 19 28 29 32 32 27 26 30 34 35 34 30 31 31 31 30 28 27 27 26 26 26 26
14 11 7 5 7 7 6 4 4 2 1 3 7 13 17 18 17 16 20 25 27 29 32 31 32 30 27 24 28 33 31 31 31 27 30 30 29 29 27 26 26 26 29 27
16 10 9 9 9 8 6 6 4 1 1 5 10 13 13 11 8 16 19 23 25 25 27 28 30 27 26 24 25 31 31 29 29 28 27 27 28 29 29 28 28 28 29 26
8 11 9 8 8 6 7 5 4 3 3 6 10 12 16 16 18 18 21 21 19 16 28 30 34 32 30 26 26 29 30 29 27 26 27 26 26 29 29 28 27 29 29 27
10 12 15 12 14 10 6 7 5 3 4 4 8 12 13 15 17 18 18 18 19 20 26 29 31 28 27 27 25 29 31 28 27 26 25 27 26 26 28 29 28 28 29 29
15 13 12 8 8 9 8 7 5 4 4 4 7 10 14 20 20 18 14 11 23 25 26 29 29 28 25 26 26 27 29 26 25 25 25 26 25 25 26 27 27 28 28 30
12 12 10 11 9 9 9 9 7 6 6 6 7 10 13 15 16 17 17 18 26 25 28 25 27 26 25 23 27 28 28 27 26 24 25 25 24 24 25 25 27 28 28 31
8 10 12 11 9 9 10 11 10 10 9 6 7 11 12 15 16 12 10 23 25 23 26 26 25 23 22 21 22 27 26 26 25 24 25 26 26 26 25 26 27 28 30 31
9 10 10 10 9 7 4 8 10 11 9 7 8 10 14 12 16 18 19 24 26 26 26 25 25 25 21 19 20 23 25 24 25 24 24 26 26 26 26 27 28 29 31 31
13 12 11 9 5 4 7 5 4 6 7 9 10 12 13 13 10 21 24 26 25 26 27 28 24 23 21 19 19 20 24 25 25 24 25 25 25 28 28 28 30 30 31 31
10 8 10 10 10 8 6 5 4 2 5 10 12 13 14 15 17 19 22 22 23 24 25 25 25 24 24 20 18 19 21 20 21 22 24 23 25 27 27 28 29 28 29 30
11 11 9 7 7 7 7 5 2 4 4 6 10 13 14 15 17 16 18 21 22 22 22 23 23 22 20 17 14 13 13 15 18 20 23 23 24 26 27 28 29 29 28 28
Wind_Direction
246 247 206 223 195 194 197 211 190 266 223 261 274 275 289 278 287 277 225 208 201 198 200 201 201 205 210 213 213 216 218 219 223 227 231 233 235 238 245 251 257 264 271 271
273 266 259 261 232 216 219 238 256 265 278 278 271 273 279 296 300 294 253 219 207 202 196 200 203 205 209 214 216 215 218 221 224 227 229 232 234 239 244 248 254 259 261 266
256 239 291 289 217 213 220 201 197 214 249 252 272 303 320 311 297 285 300 228 203 204 203 205 206 207 208 214 216 215 219 222 223 225 227 232 235 238 242 245 252 255 259 262
223 26 237 256 258 227 215 238 211 249 249 218 252 275 272 298 302 315 301 291 228 214 212 212 214 212 217 216 215 216 219 222 223 225 227 229 230 237 242 244 249 255 259 264
183 211 295 296 272 190 186 264 215 223 246 200 11 349 290 255 290 289 295 303 293 256 226 222 218 217 215 214 216 215 216 220 223 222 226 227 229 235 238 242 247 252 258 264
128 196 237 236 231 143 102 279 229 175 175 156 95 44 264 291 295 301 313 318 314 310 243 229 222 216 210 209 210 213 216 222 225 225 227 228 231 234 237 241 248 253 257 262
210 236 276 248 193 153 201 262 187 159 171 165 179 197 226 299 315 307 292 312 320 306 268 239 226 212 209 209 211 220 222 226 227 226 227 232 232 234 236 237 244 248 255 263
136 184 266 181 85 181 217 318 180 190 195 185 224 270 269 282 302 317 311 303 301 280 274 259 232 217 215 217 226 225 226 228 229 228 227 230 230 231 232 235 238 245 252 261
184 203 220 199 203 209 183 182 211 198 199 194 231 242 253 258 297 308 313 305 294 274 268 254 235 224 224 234 230 228 227 228 230 230 228 229 227 225 224 228 233 244 247 254
129 223 236 222 230 202 198 209 198 199 199 206 246 252 254 274 282 285 299 301 298 273 265 265 247 234 236 240 237 231 226 227 228 227 226 226 227 229 229 230 232 239 244 248
264 256 272 249 218 234 226 186 182 183 200 223 225 257 233 255 262 267 286 297 294 276 264 267 269 254 245 240 237 229 228 230 228 226 222 226 228 228 228 235 235 236 243 246
232 205 224 212 154 136 133 166 201 210 245 244 216 239 246 260 271 272 276 288 287 289 280 278 275 265 257 247 236 229 223 223 222 219 221 223 227 232 237 244 243 242 247 245
236 224 199 196 195 188 187 209 222 175 177 237 276 244 266 259 277 284 283 281 277 280 286 290 284 276 267 253 240 230 221 220 217 215 218 217 222 223 227 234 240 240 238 237
234 166 258 187 231 211 221 149 152 164 217 274 294 324 329 312 317 315 307 310 309 303 292 288 286 279 274 260 243 234 227 223 218 215 217 218 220 220 221 220 222 225 233 237
238 205 224 204 211 182 184 156 128 145 202 310 326 331 328 317 310 305 314 314 314 309 299 289 281 280 281 265 244 235 226 223 220 219 222 223 222 219 222 223 225 230 235 232
241 248 247 242 241 207 169 157 149 205 294 325 335 320 317 315 310 310 313 314 309 300 300 297 291 285 282 268 252 237 228 227 221 219 218 218 217 214 215 217 221 225 229 226
222 227 202 191 177 168 174 153 161 189 292 344 312 319 320 319 315 311 314 315 311 304 301 299 296 297 283 271 252 235 226 221 218 220 216 213 211 211 213 213 217 219 222 225
218 212 181 155 162 168 170 160 156 161 212 303 310 312 311 308 299 307 310 312 310 307 305 308 308 303 279 269 252 237 230 223 213 215 217 212 209 211 211 214 217 220 225 225
156 152 147 145 150 150 153 170 182 219 286 310 311 303 304 300 301 302 309 306 305 308 311 320 318 308 285 267 253 238 229 224 221 214 212 215 208 209 210 213 215 221 226 222
156 154 142 141 155 158 164 178 192 215 271 297 316 314 303 301 305 306 309 298 299 304 319 325 332 318 295 272 259 240 230 223 222 221 208 208 210 207 209 212 213 217 220 218
144 143 144 145 157 166 168 180 186 234 266 318 328 319 309 310 316 317 316 310 314 331 326 321 324 319 314 289 269 237 231 219 218 220 216 209 210 210 208 207 206 209 211 214
145 144 145 150 152 166 187 199 212 241 264 307 320 317 316 306 317 323 315 294 307 317 321 320 323 321 313 301 277 252 228 222 219 217 218 213 208 209 210 206 204 204 204 212
137 137 141 150 163 189 206 203 225 238 237 265 293 320 326 320 318 318 315 320 320 317 316 318 319 315 313 301 277 256 235 222 220 216 216 215 212 211 210 207 205 201 203 208
137 140 154 168 166 164 189 244 254 236 240 291 300 310 317 316 316 320 315 320 325 324 320 319 322 320 314 293 283 260 241 227 224 220 215 215 212 210 210 207 203 203 207 209
142 145 154 161 170 204 219 212 195 218 268 288 291 303 307 315 301 319 331 329 327 329 330 327 328 325 314 306 290 268 244 234 229 222 214 213 209 210 210 208 208 206 207 210
147 161 178 188 187 189 204 222 227 288 312 302 302 312 324 324 321 325 331 336 334 333 330 327 324 321 316 313 298 271 244 237 234 225 220 213 213 212 211 210 210 207 212 213
168 166 170 176 192 202 190 174 210 268 279 287 291 320 332 330 335 327 323 326 337 334 328 330 332 324 318 315 297 261 252 249 245 231 225 217 215 218 214 215 216 211 213 212